Regional Weather Roundup
Issued by NWS Cleveland, OH

Home | Current Version | Previous Version | Graphics & Text | Print | Product List | Glossary On
Versions: 1 2 3 4 5 6 7 8 9 10 11 12 13 14 15 16 17 18 19 20 21 22 23 24 25 26 27 28 29 30 31 32 33 34 35 36 37 38 39 40 41 42 43 44 45 46 47 48 49 50
000
ASUS41 KCLE 220000
RWRCLE
OHIO REGIONAL WEATHER ROUNDUP
NATIONAL WEATHER SERVICE WILMINGTON, OH
700 PM EST SUN DEC 21 2014

NOTE: "FAIR" INDICATES FEW OR NO CLOUDS BELOW 12,000 FEET WITH NO
SIGNIFICANT WEATHER AND/OR OBSTRUCTIONS TO VISIBILITY.

OHZ001>008-015>018-024>027-034-035-043-044-220100-
   NORTHWEST OHIO

CITY           SKY/WX    TMP DP  RH WIND       PRES   REMARKS
DEFIANCE       PTCLDY    29  24  82 E6        30.20F WCI  23
FINDLAY        CLEAR     30  24  78 E6        30.19F WCI  24
TOLEDO EXPRESS PTCLDY    28  23  81 CALM      30.22S
TOLEDO METCALF PTCLDY    30  22  72 E3        30.23S
LIMA           PTCLDY    31  24  75 SE7       30.18F WCI  24
$$

OHZ009>014-019>023-028>033-038-089-220100-
   NORTHEAST OHIO

CITY           SKY/WX    TMP DP  RH WIND       PRES   REMARKS
CLE-HOPKINS    CLOUDY    30  22  72 SE8       30.27F WCI  22
CLE-LAKEFRONT  CLOUDY    32  21  64 SE8       30.25F WCI  25
CUY CO. ARPT   CLOUDY    32  23  69 SE7       30.25F WCI  26
LORAIN-ELYRIA  PTCLDY    28  22  78 SE6       30.24F WCI  22
ASHTABULA      CLOUDY    31  22  69 SE6       30.27R WCI  25
AKRON-CANTON   CLOUDY    28  20  71 E5        30.22F WCI  23
WOOSTER        NOT AVBL
MANSFIELD      MOCLDY    26  21  81 E7        30.20S WCI  18
YOUNGSTOWN     CLOUDY    29  21  72 E3        30.23F
$$

OHZ042-051>053-060>062-070>072-077>081-220100-
  SOUTHWEST OHIO

CITY           SKY/WX    TMP DP  RH WIND       PRES   REMARKS
CINC-COVINGTON PTCLDY    32  23  69 E7        30.15F WCI  26
CINC-LUNKEN    PTCLDY    28  24  85 NE3       30.19F
HAMILTON       PTCLDY    28  24  85 E5        30.18F WCI  23
DAYTON         NOT AVBL
WRIGHT-PAT AFB PTCLDY    30  24  78 NE5       30.18F WCI  26
DAYTON GENERAL PTCLDY    32  25  75 E3        30.16F
WILMINGTON     CLEAR     30  24  78 E6        30.17F WCI  24
$$

OHZ036-037-039>041-045>050-054>059-063>069-073>076-082>088-220100-
  CENTRAL AND SOUTHEAST OHIO

CITY           SKY/WX    TMP DP  RH WIND       PRES   REMARKS
COLUMBUS       MOCLDY    30  22  72 CALM      30.20S
OSU AIRPORT    PTCLDY    29  22  75 E5        30.19F WCI  24
BOLTON FIELD   MOCLDY    30  25  80 E5        30.19F WCI  25
RICKENBACK AFB NOT AVBL
NEWARK         FAIR      29  22  75 NE3       30.20F
MARION         PTCLDY    29  21  72 SE6       30.20S WCI  23
LANCASTER      CLEAR     30  24  78 E3        30.20F
ZANESVILLE     PTCLDY    29  23  78 NE3       30.21F
NEW PHILLY     PTCLDY    28  22  78 CALM      30.24S
$$


USA.gov is the U.S. government's official web portal to all federal, state and local government web resources and services.